User: anonymous
Location: Unspecified
(0.0000°N, 0.0000°E)
Time: 14:21:42
(UTC+02:00)
Language:

ARIANE 5 R/B - Orbit

View from above orbital plane
View from above orbital plane
View from above satellite
View from above satellite

Ground track
Ground track

The orbit data is extracted from the following two-line orbital elements,

1 28379U 04027B   14207.36901389 -.00000076  00000-0 -30194-2 0  6727
2 28379 007.3491 327.8246 7285527 087.8178 260.0464 02.07923921 76147
Epoch (UTC): 26 July 2014 08:51:22
Eccentricity: 0.7285527
inclination: 7.3491°
perigee height: 660 km
apogee height: 38442 km
right ascension of ascending node: 327.8246°
argument of perigee: 87.8178°
revolutions per day: 2.07923921
mean anomaly at epoch: 260.0464°
orbit number at epoch: 7614

The dashed part of the orbit path shows where the satellite is in the earth's shadow,  

DLR